Date String (YYYY-MM-DD hh:mm:ss) UTC,Instrument flags,Ambient pressure (hPa),Sample flow (lpm),Bypass flow (lpm),Sample temperature (°C),Ambient temperature (°C),ASC tube jacket temperature (°C),LED temperature (°C),Box temperature (°C),Sample RH (%),Span deviation,Mass concentration (μg/m³),Mass concentration (μg/m³),Mass concentration (μg/m³)
DateTimeUTC,F1_M11,P_M11,Q1_M11,Q2_M11,T1_M11,T2_M11,T3_M11,T4_M11,T5_M11,U1_M11,ZSPAN_M11,X0_M11,X2_M11,X1_M11
2023-04-30 18:00:00,,0831.4,4.98,0.00,27.5,26.3,00.0,35.8,29.1,15.7,0000.0,0017.09,0006.29,0004.50
2023-04-30 18:01:00,,0831.3,5.00,0.00,27.5,26.3,00.0,35.8,29.1,15.6,0000.0,0016.52,0006.27,0004.51
2023-04-30 18:02:00,,0831.3,5.02,0.00,27.5,26.3,00.0,35.8,29.1,15.6,0000.0,0015.42,0006.27,0004.51
2023-04-30 18:03:00,,0831.3,4.97,0.00,27.5,26.3,00.0,35.8,29.1,16.1,0000.0,0014.62,0006.35,0004.52
2023-04-30 18:04:00,,0831.4,5.01,0.00,27.6,26.3,00.0,35.8,29.1,16.1,0000.0,0014.44,0006.36,0004.53
2023-04-30 18:05:00,,0831.3,5.00,0.00,27.6,26.4,00.0,35.9,29.2,15.9,0000.0,0014.67,0006.38,0004.53
2023-04-30 18:06:00,,0831.3,4.99,0.00,27.6,26.4,00.0,35.9,29.2,15.5,0000.0,0014.33,0006.36,0004.53
2023-04-30 18:07:00,,0831.4,5.00,0.00,27.6,26.4,00.0,35.9,29.2,15.6,0000.0,0014.10,0006.42,0004.53
2023-04-30 18:08:00,,0831.3,5.03,0.00,27.6,26.3,00.0,35.9,29.2,15.6,0000.0,0014.06,0006.42,0004.53
2023-04-30 18:09:00,,0831.3,5.00,0.00,27.6,26.3,00.0,35.9,29.2,16.0,0000.0,0013.43,0006.34,0004.53
2023-04-30 18:10:00,,0831.3,4.98,0.00,27.6,26.3,00.0,35.9,29.2,15.8,0000.0,0013.33,0006.34,0004.54
2023-04-30 18:11:00,,0831.3,5.03,0.00,27.6,26.3,00.0,35.9,29.2,15.6,0000.0,0013.37,0006.33,0004.53
2023-04-30 18:12:00,,0831.3,4.99,0.00,27.6,26.3,00.0,35.9,29.2,15.4,0000.0,0013.50,0006.33,0004.52
2023-04-30 18:13:00,,0831.3,4.99,0.00,27.6,26.3,00.0,35.9,29.2,15.5,0000.0,0013.45,0006.34,0004.53
2023-04-30 18:14:00,,0831.3,5.01,0.00,27.6,26.3,00.0,35.9,29.2,15.7,0000.0,0013.96,0006.30,0004.55
2023-04-30 18:15:00,,0831.2,4.99,0.00,27.6,26.3,00.0,35.9,29.2,15.4,0000.0,0013.56,0006.30,0004.55
2023-04-30 18:16:00,,0831.3,5.02,0.00,27.6,26.3,00.0,36.0,29.2,15.8,0000.0,0013.24,0006.29,0004.59
2023-04-30 18:17:00,,0831.3,5.00,0.00,27.6,26.3,00.0,36.0,29.2,16.0,0000.0,0013.72,0006.32,0004.61
2023-04-30 18:18:00,,0831.2,4.98,0.00,27.6,26.3,00.0,36.0,29.3,16.2,0000.0,0013.79,0006.26,0004.63
2023-04-30 18:19:00,,0831.2,5.03,0.00,27.6,26.3,00.0,36.0,29.3,16.0,0000.0,0013.99,0006.27,0004.66
2023-04-30 18:20:00,,0831.2,4.98,0.00,27.7,26.3,00.0,36.0,29.2,16.0,0000.0,0014.30,0006.32,0004.67
2023-04-30 18:21:00,,0831.2,5.00,0.00,27.7,26.4,00.0,36.0,29.2,15.9,0000.0,0015.13,0006.35,0004.68
2023-04-30 18:22:00,,0831.2,5.00,0.00,27.7,26.4,00.0,36.0,29.3,15.6,0000.0,0015.85,0006.29,0004.67
2023-04-30 18:23:00,,0831.2,4.99,0.00,27.7,26.4,00.0,36.0,29.3,15.7,0000.0,0015.78,0006.29,0004.68
2023-04-30 18:24:00,,0831.2,5.02,0.00,27.7,26.4,00.0,36.0,29.3,15.6,0000.0,0015.74,0006.35,0004.70
2023-04-30 18:25:00,,0831.2,5.00,0.00,27.7,26.4,00.0,36.0,29.3,16.0,0000.0,0014.70,0006.37,0004.70
2023-04-30 18:26:00,,0831.2,4.98,0.00,27.7,26.5,00.0,36.0,29.3,15.8,0000.0,0014.38,0006.38,0004.72
2023-04-30 18:27:00,,0831.2,5.01,0.00,27.7,26.5,00.0,36.0,29.3,15.7,0000.0,0014.55,0006.41,0004.72
2023-04-30 18:28:00,,0831.1,5.00,0.00,27.8,26.6,00.0,36.0,29.3,15.8,0000.0,0014.26,0006.40,0004.73
2023-04-30 18:29:00,,0831.1,4.98,0.00,27.8,26.6,00.0,36.1,29.3,15.9,0000.0,0014.41,0006.43,0004.74
2023-04-30 18:30:00,,0831.2,5.02,0.00,27.8,26.5,00.0,36.1,29.3,15.6,0000.0,0014.59,0006.46,0004.75
2023-04-30 18:31:00,,0831.2,4.99,0.00,27.8,26.5,00.0,36.1,29.4,15.4,0000.0,0014.61,0006.52,0004.77
2023-04-30 18:32:00,,0831.1,5.00,0.00,27.8,26.6,00.0,36.1,29.4,15.5,0000.0,0013.91,0006.57,0004.80
2023-04-30 18:33:00,,0831.2,5.02,0.00,27.8,26.6,00.0,36.1,29.4,15.5,0000.0,0013.17,0006.62,0004.84
2023-04-30 18:34:00,,0831.1,5.00,0.00,27.8,26.6,00.0,36.1,29.4,15.8,0000.0,0013.16,0006.61,0004.87
2023-04-30 18:35:00,,0831.1,4.98,0.00,27.9,26.7,00.0,36.1,29.4,15.6,0000.0,0013.58,0006.59,0004.88
2023-04-30 18:36:00,,0831.1,5.02,0.00,27.9,26.7,00.0,36.2,29.4,15.7,0000.0,0013.73,0006.57,0004.88
2023-04-30 18:37:00,,0831.1,4.99,0.00,27.9,26.8,00.0,36.2,29.5,15.1,0000.0,0014.44,0006.54,0004.86
2023-04-30 18:38:00,,0831.1,5.01,0.00,27.9,26.8,00.0,36.2,29.5,14.9,0000.0,0015.25,0006.49,0004.84
2023-04-30 18:39:00,,0831.1,4.99,0.00,27.9,26.8,00.0,36.2,29.5,14.9,0000.0,0015.06,0006.44,0004.82
2023-04-30 18:40:00,,0830.9,4.98,0.00,28.0,26.8,00.0,36.2,29.5,15.0,0000.0,0014.80,0006.41,0004.81
2023-04-30 18:41:00,,0830.9,5.03,0.00,28.0,26.9,00.0,36.2,29.6,15.1,0000.0,0015.08,0006.41,0004.80
2023-04-30 18:42:00,,0830.9,4.99,0.00,28.0,26.9,00.0,36.3,29.6,15.2,0000.0,0015.00,0006.38,0004.80
2023-04-30 18:43:00,,0830.9,4.99,0.00,28.1,26.9,00.0,36.3,29.6,15.2,0000.0,0015.04,0006.39,0004.78
2023-04-30 18:44:00,,0830.9,5.02,0.00,28.1,26.9,00.0,36.3,29.6,15.5,0000.0,0015.31,0006.43,0004.78
2023-04-30 18:45:00,,0830.9,4.97,0.00,28.1,26.9,00.0,36.3,29.7,15.6,0000.0,0015.45,0006.45,0004.77
2023-04-30 18:46:00,,0830.9,5.01,0.00,28.1,27.0,00.0,36.3,29.7,15.3,0000.0,0015.73,0006.50,0004.77
2023-04-30 18:47:00,,0830.9,5.00,0.00,28.1,27.0,00.0,36.3,29.7,15.6,0000.0,0015.53,0006.53,0004.78
2023-04-30 18:48:00,,0830.9,4.99,0.00,28.1,27.0,00.0,36.4,29.7,15.2,0000.0,0015.09,0006.54,0004.79
2023-04-30 18:49:00,,0830.8,4.98,0.00,28.1,27.0,00.0,36.4,29.7,15.2,0000.0,0014.02,0006.58,0004.83
2023-04-30 18:50:00,,0830.9,5.02,0.00,28.1,26.9,00.0,36.4,29.8,15.6,0000.0,0014.47,0006.67,0004.85
2023-04-30 18:51:00,,0830.9,4.99,0.00,28.2,26.9,00.0,36.4,29.7,15.6,0000.0,0014.97,0006.69,0004.86
2023-04-30 18:52:00,,0830.8,4.99,0.00,28.2,26.9,00.0,36.4,29.7,15.3,0000.0,0014.52,0006.72,0004.88
2023-04-30 18:53:00,,0830.8,5.00,0.00,28.2,26.9,00.0,36.4,29.7,15.5,0000.0,0014.51,0006.70,0004.89
2023-04-30 18:54:00,,0830.7,5.02,0.00,28.2,26.9,00.0,36.5,29.7,15.6,0000.0,0014.51,0006.63,0004.89
2023-04-30 18:55:00,,0830.8,4.98,0.00,28.2,26.9,00.0,36.5,29.7,15.2,0000.0,0015.06,0006.55,0004.89
2023-04-30 18:56:00,,0830.8,5.00,0.00,28.2,26.9,00.0,36.5,29.7,15.2,0000.0,0015.66,0006.54,0004.91
2023-04-30 18:57:00,,0830.8,5.01,0.00,28.2,27.0,00.0,36.5,29.7,14.9,0000.0,0015.20,0006.52,0004.92
2023-04-30 18:58:00,,0830.8,5.01,0.00,28.2,27.0,00.0,36.5,29.7,15.1,0000.0,0015.42,0006.48,0004.91
2023-04-30 18:59:00,,0830.7,5.00,0.00,28.2,27.0,00.0,36.5,29.7,15.2,0000.0,0015.50,0006.48,0004.92
